Location: Central Falls
(41.8900°N, 71.3929°W)
Time: 03:33:36
(UTC+00:00)

Vanguard 2 Rocket - Pass Details

Date: 03 December 2023
Orbit: 555 x 3309 km, 32.9° (Epoch: 01 March)

Event Time Altitude Azimuth Distance (km) Brightness Sun altitude
Rises 01:00:59 0° 278° (W) 7,276 12.4 -41.4°
Reaches altitude 10° 01:06:28 10° 273° (W) 6,132 11.7 -42.4°
Maximum altitude 01:22:59 42° 211° (SSW) 3,264 9.6 -45.4°
Enters shadow 01:25:15 40° 192° (SSW) 3,176 9.4 -45.8°
Drops below altitude 10° 01:33:57 10° 146° (SE) 4,130 - -47.4°
Sets 01:36:52 0° 139° (SE) 4,790 - -47.9°
